Regional Weather Roundup
Issued by NWS Tiyan, Guam

Home | Current Version | Previous Version | Text Only | Print | Product List | Glossary On
Versions: 1 2 3 4 5 6 7 8 9 10 11 12 13 14 15 16 17 18 19 20 21 22 23 24 25 26 27
000
ASGM40 PGUM 080112
RWRGUM
WEATHER ROUNDUP FOR THE MARIANAS
NATIONAL WEATHER SERVICE TIYAN GU
1100 AM CHST THU DEC 08 2016

GUZ001>004-080200-
MARIANA ISLANDS-

CITY           SKY/WX    TMP DP  RH WIND       PRES   REMARKS
GUAM AIRPORT   CLOUDY    84  75  74 E17       29.86F HX  92
ANDERSEN AFB   PTSUNNY   81  75  83 E22       29.87F
ROTA AIRPORT   PTSUNNY   82  73  74 E21       29.88
TINIAN AP      MOSUNNY   84  73  70 E15       29.85F HX  91
SAIPAN AP      MOSUNNY   86  72  62 E21       29.87F HX  92

$$





USA.gov is the U.S. government's official web portal to all federal, state and local government web resources and services.